TimeEET,TemperatureF,Dew PointF,Humidity,Sea Level PressureIn,VisibilityMPH,Wind Direction,Wind SpeedMPH,Gust SpeedMPH,PrecipitationIn,Events,Conditions,WindDirDegrees,DateUTC
12:20 AM,59.0,48.2,67,30.12,6.2,NE,11.5,-,N/A,,Mostly Cloudy,40,2012-11-17 22:20:00
12:50 AM,59.0,48.2,67,30.12,6.2,NNE,10.4,-,N/A,,Mostly Cloudy,30,2012-11-17 22:50:00
1:20 AM,59.0,48.2,67,30.12,6.2,NE,13.8,-,N/A,,Mostly Cloudy,50,2012-11-17 23:20:00
1:50 AM,59.0,48.2,67,30.12,6.2,NE,11.5,-,N/A,,Mostly Cloudy,40,2012-11-17 23:50:00
2:00 AM,58,49,63,30.13,6,NE,11.5,,,,Partly Cloudy,40,2012-11-18 00:00:00
2:20 AM,59.0,48.2,67,30.12,6.2,NNE,11.5,-,N/A,,Mostly Cloudy,30,2012-11-18 00:20:00
2:50 AM,59.0,48.2,67,30.09,6.2,NNE,11.5,-,N/A,,Mostly Cloudy,30,2012-11-18 00:50:00
3:20 AM,59.0,50.0,72,30.09,6.2,NNE,10.4,-,N/A,,Mostly Cloudy,30,2012-11-18 01:20:00
3:50 AM,59.0,50.0,72,30.09,6.2,NNE,8.1,-,N/A,,Mostly Cloudy,30,2012-11-18 01:50:00
4:20 AM,59.0,50.0,72,30.09,6.2,NE,10.4,-,N/A,,Mostly Cloudy,40,2012-11-18 02:20:00
4:50 AM,59.0,48.2,67,30.09,6.2,NE,10.4,-,N/A,,Mostly Cloudy,40,2012-11-18 02:50:00
5:20 AM,59.0,50.0,72,30.09,6.2,NE,10.4,-,N/A,,Mostly Cloudy,40,2012-11-18 03:20:00
5:50 AM,59.0,50.0,72,30.09,6.2,NNE,9.2,-,N/A,,Mostly Cloudy,30,2012-11-18 03:50:00
6:20 AM,59.0,50.0,72,30.09,6.2,NE,11.5,-,N/A,,Mostly Cloudy,50,2012-11-18 04:20:00
6:50 AM,59.0,50.0,72,30.12,6.2,NE,9.2,-,N/A,,Mostly Cloudy,40,2012-11-18 04:50:00
7:20 AM,59.0,50.0,72,30.12,6.2,NE,8.1,-,N/A,,Mostly Cloudy,50,2012-11-18 05:20:00
7:50 AM,59.0,50.0,72,30.12,6.2,NE,8.1,-,N/A,,Mostly Cloudy,50,2012-11-18 05:50:00
8:00 AM,59,50,64,30.14,6,NE,8.1,,,,Partly Cloudy,50,2012-11-18 06:00:00
8:20 AM,59.0,50.0,72,30.12,6.2,NE,9.2,-,N/A,,Mostly Cloudy,50,2012-11-18 06:20:00
8:50 AM,60.8,51.8,72,30.12,6.2,ENE,8.1,-,N/A,,Mostly Cloudy,60,2012-11-18 06:50:00
9:20 AM,60.8,51.8,72,30.12,6.2,ENE,6.9,-,N/A,,Mostly Cloudy,60,2012-11-18 07:20:00
9:50 AM,59.0,53.6,82,30.12,5.0,ENE,5.8,-,N/A,Rain,Light Rain Showers,70,2012-11-18 07:50:00
10:20 AM,59.0,53.6,82,30.12,5.0,NE,4.6,-,N/A,,Mostly Cloudy,50,2012-11-18 08:20:00
10:50 AM,59.0,53.6,82,30.12,6.2,NE,6.9,-,N/A,,Mostly Cloudy,50,2012-11-18 08:50:00
11:20 AM,60.8,53.6,77,30.12,4.3,NNE,8.1,-,N/A,,Mostly Cloudy,30,2012-11-18 09:20:00
11:50 AM,62.6,53.6,72,30.09,6.2,NNE,10.4,-,N/A,,Mostly Cloudy,30,2012-11-18 09:50:00
12:20 PM,60.8,51.8,72,30.09,4.3,NNE,11.5,-,N/A,,Mostly Cloudy,30,2012-11-18 10:20:00
12:50 PM,62.6,53.6,72,30.09,6.2,NNE,9.2,-,N/A,,Mostly Cloudy,20,2012-11-18 10:50:00
1:20 PM,62.6,51.8,68,30.09,6.2,NE,10.4,-,N/A,,Mostly Cloudy,40,2012-11-18 11:20:00
1:50 PM,64.4,51.8,64,30.06,6.2,NNE,11.5,-,N/A,,Mostly Cloudy,30,2012-11-18 11:50:00
2:00 PM,64,51,52,30.09,6,NNE,11.5,,,,Mostly Cloudy,30,2012-11-18 12:00:00
2:20 PM,64.4,51.8,64,30.06,6.2,NNE,11.5,-,N/A,,Scattered Clouds,30,2012-11-18 12:20:00
2:50 PM,62.6,51.8,68,30.06,6.2,NNE,11.5,-,N/A,,Scattered Clouds,20,2012-11-18 12:50:00
3:20 PM,62.6,50.0,63,30.06,6.2,North,13.8,-,N/A,,Scattered Clouds,10,2012-11-18 13:20:00
3:50 PM,60.8,50.0,68,30.06,6.2,North,15.0,-,N/A,,Scattered Clouds,10,2012-11-18 13:50:00
4:20 PM,60.8,50.0,68,30.06,6.2,North,11.5,-,N/A,,Scattered Clouds,10,2012-11-18 14:20:00
4:50 PM,59.0,50.0,72,30.06,6.2,NNE,11.5,-,N/A,,Partly Cloudy,30,2012-11-18 14:50:00
5:20 PM,59.0,51.8,77,30.09,6.2,NNE,11.5,-,N/A,,Partly Cloudy,20,2012-11-18 15:20:00
5:50 PM,59.0,51.8,77,30.09,6.2,NNE,11.5,-,N/A,,Scattered Clouds,20,2012-11-18 15:50:00
6:20 PM,59.0,51.8,77,30.09,6.2,NNE,10.4,-,N/A,,Scattered Clouds,20,2012-11-18 16:20:00
6:50 PM,59.0,51.8,77,30.09,6.2,NNE,9.2,-,N/A,,Scattered Clouds,20,2012-11-18 16:50:00
7:20 PM,59.0,51.8,77,30.09,6.2,NNE,11.5,-,N/A,,Scattered Clouds,20,2012-11-18 17:20:00
7:50 PM,59.0,50.0,72,30.09,6.2,NNE,9.2,-,N/A,,Scattered Clouds,30,2012-11-18 17:50:00
8:00 PM,59,51,66,30.12,6,NNE,9.2,,,,Partly Cloudy,30,2012-11-18 18:00:00
8:20 PM,59.0,50.0,72,30.09,6.2,NE,5.8,-,N/A,,Scattered Clouds,40,2012-11-18 18:20:00
8:50 PM,57.2,50.0,77,30.09,6.2,NNE,6.9,-,N/A,,Partly Cloudy,30,2012-11-18 18:50:00
9:20 PM,59.0,50.0,72,30.09,6.2,Variable,6.9,-,N/A,,Scattered Clouds,0,2012-11-18 19:20:00
9:50 PM,57.2,50.0,77,30.09,6.2,NNE,6.9,-,N/A,,Scattered Clouds,30,2012-11-18 19:50:00
10:20 PM,57.2,51.8,82,30.12,6.2,NE,5.8,-,N/A,,Scattered Clouds,40,2012-11-18 20:20:00
10:50 PM,59.0,53.6,82,30.12,6.2,NE,8.1,-,N/A,,Scattered Clouds,50,2012-11-18 20:50:00
11:20 PM,57.2,53.6,88,30.12,6.2,NE,8.1,-,N/A,,Scattered Clouds,50,2012-11-18 21:20:00
11:50 PM,57.2,53.6,88,30.12,6.2,NNE,4.6,-,N/A,,Scattered Clouds,20,2012-11-18 21:50:00